Regional Weather Roundup
Issued by NWS Grand Forks, ND

Home | Current Version | Previous Version | Text Only | Print | Product List | Glossary On
Versions: 1 2 3 4 5 6 7 8 9 10 11 12 13 14 15 16 17 18 19 20 21 22 23 24 25 26 27 28 29 30 31 32 33 34 35 36 37 38 39 40 41 42 43 44 45 46 47 48 49 50
000
ASUS43 KFGF 120110
RWRFGF
PRAIRIE TO PINES  WEATHER ROUNDUP
NATIONAL WEATHER SERVICE EASTERN NORTH DAKOTA/GRAND FORKS ND
700 PM CST MON DEC 11 2017

 **SATELLITE DATA USED TO AUGMENT SKY COVER AT AUTOMATED STATIONS**
 *****  WEATHER ACROSS EASTERN NORTH DAKOTA  *****

CITY           SKY/WX    TMP DP  RH WIND       PRES   REMARKS
GRAND FORKS    FAIR       8   5  87 NW6       30.35R WCI  -2
GRAND FRKS AFB CLEAR      6   2  84 N3        30.35R
GRAND FRKS NWS   N/A      9 N/A N/A N2          N/A
DEVILS LAKE    FAIR      15  11  83 NW7       30.31R WCI   5
FARGO          FAIR      13   7  77 N17       30.34R WCI  -4
WAHPETON ARPT    N/A     14   9  79 N16       30.34R WCI  -2
$$

 ***** WEATHER ACROSS CENTRAL AND WESTERN NORTH DAKOTA  *****

CITY           SKY/WX    TMP DP  RH WIND       PRES   REMARKS
BISMARCK       FAIR      25  20  81 CALM      30.36R
MINOT          FAIR      23  18  81 SW6       30.30F WCI  16
JAMESTOWN      FAIR      15  12  88 NW7       30.32R WCI   5
MINOT AFB      MOCLDY    19  16  88 W8        30.30S WCI   9
GARRISON         N/A     23  19  85 NW6       30.31S WCI  16
WILLISTON      FAIR      27  24  89 W6        30.34F WCI  20
DICKINSON      CLOUDY    34  30  85 NW12      30.32R
HETTINGER      CLOUDY    35  26  69 NW10      30.35S
$$

 *****  OTHER AIRPORT OBSERVATIONS IN OUR AREA  *****

CITY           SKY/WX    TMP DP  RH WIND       PRES   REMARKS
WALHALLA       FAIR      10  10 100 W5        30.34S WCI   2
GRAFTON AIRPOR FAIR       9   5  85 CALM      30.37S
VALLEY CITY AR FAIR      12  12 100 NW6       30.33S WCI   3
CANDO          FAIR      12  12 100 NW8       30.32F WCI   1
CAVALIER APRT  FAIR      10   7  85 NW8       30.34S WCI  -1
GWINNER          N/A     16  12  86 NW7       30.33S WCI   6
ROLLA          FAIR      12  10  92 SW6       30.28S WCI   3
 ***** THE ABOVE OBSERVATIONS ARE NON NWS ARE NOT QUALITY
       CONTROLLED AND MAY MIS-REPORT RAIN FOR SNOW...
$$

  *****  WEATHER ACROSS NORTHERN MINNESOTA  *****

CITY           SKY/WX    TMP DP  RH WIND       PRES   REMARKS
FLAG ISLAND    FAIR       5   1  85 NW17      30.23S WCI -14
WARROAD        FAIR       5   1  85 NW9       30.27R WCI  -9
ROSEAU         FAIR       7   1  78 NW7       30.29R WCI  -5
HALLOCK        FAIR       9   3  78 NW6       30.33S WCI  -1
THF RVR FALLS  FAIR       7   2  80 NW14      30.31R WCI -10
BAUDETTE       FAIR       7   1  76 NW17      30.22R WCI -12
WASKISH        FAIR       9   5  85 NW9       30.23R WCI  -5
CROOKSTON      FAIR       7   3  85 N9        30.35S WCI  -7
STEPHEN NDAWN    N/A      7   1  78 N3          N/A
GREENBUSH NDAW   N/A      3   0  85 NW7         N/A  WCI  -9
$$
  *****  WEATHER ACROSS CENTRAL AND WEST MINNESOTA  *****

CITY           SKY/WX    TMP DP  RH WIND       PRES   REMARKS
FOSSTON        CLOUDY     3   1  92 NW12      30.28R WCI -13
BEMIDJI        FLURRIES   6   2  83 NW14      30.22R WCI -10
PARK RAPIDS    CLOUDY     9   4  80 NW10      30.21R WCI  -5
ELBOW LAKE     FAIR      11   8  86 NW18G25   30.29R WCI  -7
WADENA         FLURRIES   9   5  85 NW10      30.23R WCI  -6
DETROIT LAKES  LGT SNOW  10   7  85 NW15      30.28R WCI  -6
MOORHEAD       FAIR      10   5  79 N14       30.34R WCI  -5
FERGUS FALLS   FAIR      10   7  85 N15G22    30.34R WCI  -6
MORRIS MN      FAIR      14   9  79 NW21G26   30.28R WCI  -4
STAPLES        MOCLDY    10   7  85 NW14      30.21R WCI  -5
$$
  *****  WEATHER ELSEWHERE ACROSS MINNESOTA  *****

CITY           SKY/WX    TMP DP  RH WIND       PRES   REMARKS
DULUTH         MOCLDY    14   7  73 N18G29    30.05R WCI  -3
INTRNTL FALLS  FAIR       9   1  70 NW8       30.17R WCI  -3
ELY            MOCLDY    10   1  67 N10G20    30.06R WCI  -3
CLOQUET        FAIR      16   7  67 NW12G18   30.08R WCI   3
WHEATON        FAIR      14   9  79 NW13      30.35R WCI   0
BRAINERD       FAIR      17   7  64 NW8       30.17R WCI   7
HIBBING        FAIR      12   5  73 NW18      30.09R WCI  -6
ALEXANDRIA     FAIR      12   7  80 NW15      30.23R WCI  -4
SAINT CLOUD    FAIR      20  13  74 NW10      30.16R WCI   9
MINNEAPOLIS    MOCLDY    25  17  72 NW17      30.13R WCI  12
$$

  *****  WEATHER ACROSS SOUTH DAKOTA  *****

CITY           SKY/WX    TMP DP  RH WIND       PRES   REMARKS
SIOUX FALLS    FAIR      25  19  78 N20G29    30.27R WCI  11
BROOKINGS      FAIR      20  14  77 N18G25    30.27R WCI   5
WATERTOWN      FAIR      18  14  84 N15       30.27R WCI   4
HURON          FAIR      21  16  81 N8        30.34R WCI  11
SISSETON         N/A     18  13  80 NW14      30.32R WCI   4
ABERDEEN       FAIR      16  14  92 N6        30.35R WCI   7
MITCHELL       FAIR      26  19  74 N18G24    30.34R WCI  13
PIERRE         MOCLDY    34  29  82 NW15      30.33S WCI  24
MOBRIDGE       FAIR      28  23  81 NE7       30.32R WCI  21
RAPID CITY     FAIR      29  22  75 N9        30.37R WCI  20
$$

  *****  SOME WEATHER IN NEARBY STATES *****

CITY           SKY/WX    TMP DP  RH WIND       PRES   REMARKS
GLASGOW MT     FAIR      33  24  69 SW6       30.36F
GREAT FALLS MT FAIR      43  12  28 S15       30.36S
CHEYENNE WY    FAIR      37  12  35 N7        30.40R
SCOTTSBLUFF NE FAIR      35  12  38 NW12      30.39R
OMAHA NE       FAIR      37  24  59 NW25G32   30.20R
DES MOINES IA  CLOUDY    35  27  72 NW24G35   30.09R WCI  23
DAVENPORT IA   CLOUDY    35  32  88 NW15      29.91R
CHICAGO IL     CLOUDY    33  30  88 NW12      29.76S WCI  24
EAU CLAIRE WI  CLOUDY    23  11  60 NW21G36   30.03R WCI   8
LA CROSSE WI   CLOUDY    33  21  61 N23G32    29.96R WCI  21
$$

  *****  SOME NATIONAL WEATHER *****

CITY           SKY/WX    TMP DP  RH WIND       PRES   REMARKS
LA GUARDIA NY  MOCLDY    39  22  50 SW7       30.02R
RALEIGH NC     FAIR      43  29  57 S8        29.99F
ATLANTA GA     FAIR      50  34  54 SW8       30.01F
NEW ORLEANS LA FAIR      57  48  72 SW8       30.15S
OKLAHOMA CITY  FAIR      52  18  26 W6        30.17R
ALBUQUERQUE NM MOCLDY    43   1  17 CALM      30.36R
SALT LAKE CITY FOG       27  26  96 NW3       30.57S VSB 1/4
LOS ANGELES CA FAIR      69  28  21 NW3       30.16S
BOISE ID       CLOUDY    25  21  85 NW3       30.64S
SEATTLE WA     FAIR      42  35  76 S3        30.37R
$$

*** WEATHER ACROSS MANITOBA...SASKATCHEWAN AND ONTARIO ***
                ***ONTARIO***

CITY           SKY/WX    TMP DP  RH WIND       PRES   REMARKS
GERALDTON      LGT SNOW   0  -6  78 N13       29.93R DRFTSNOWWCI -18
THUNDER BAY    FLURRIES   9   0  66 NW20G29   30.03R WCI -11
SIOUX LOOKOUT  FLURRIES   1  -4  78 NW14G22   30.09R WCI -17
TORONTO        LGT SNOW  25  23  93 SE3       29.80F
BIG TROUT LK   FLURRIES  -4 -11  71 N10       30.06R WCI -21
PICKLE LAKE    CRYSTALS  -4  -9  77 NW7       30.01S WCI -18
DRYDEN         PTCLDY     3  -2  78 NW10      30.12R WCI -12
KENORA         PTCLDY     3   0  85 NW10      30.18R WCI -12
$$
                *** MANITOBA***

CITY           SKY/WX    TMP DP  RH WIND       PRES   REMARKS
BRANDON        PTCLDY    14  10  85 W10       30.29S WCI   1
DAUPHIN        CLEAR     14  10  85 W10       30.27F WCI   1
ISLAND LAKE    CLEAR     -9 -15  77 W8        30.18S WCI -26
PILOT MOUND      N/A      9   7  92 SW5         N/A  WCI   0
THE PAS        CLOUDY    10   7  85 SE5       30.22F WCI   2
THOMPSON       PTCLDY   -11 -17  77 W6        30.20F WCI -25
WINNIPEG       CLEAR      3   0  85 NW6       30.34R WCI  -8
LYNN LAKE      CLOUDY    -4  -6  92 CALM      30.15F
CHURCHILL      CRYSTALS -13 -17  84 NW14      30.10F WCI -35
GILLAM         CLEAR    -13 -20  70 W10       30.16S WCI -32
$$
                ***SASKATCHEWAN***

CITY           SKY/WX    TMP DP  RH WIND       PRES   REMARKS
ESTEVAN        PTCLDY    28  27  93 W7        30.30S WCI  21
KINDERSLEY     PTCLDY    32  25  74 SW9       30.24F WCI  24
LLOYDMINSTER   CLOUDY    36  27  69 SW15      30.14F
PRINCE ALBERT  PTCLDY    23  23 100 CALM      30.19F
REGINA         CLEAR     27  27 100 W8        30.26F WCI  18
YORKTON        CLOUDY    27  23  86 S7        30.22F WCI  19
N. BATTLEFORD  CLOUDY    28  23  80 SW6       30.21F WCI  22
LA RONGE       FLURRIES  21  19  93 SE2       30.14F
SASKATOON      PTCLDY    25  23  93 SW10      30.23F WCI  15
SWIFT CURRENT  CLEAR     27  19  74 SW10      30.27F WCI  17
$$
NOTE: THESE ARE AUTOMATED STATIONS WITH LIMITED QUALITY CONTROL
      "FAIR" INDICATES FEW OR NO CLOUDS BELOW 12,000 FEET WITH NO
      SIGNIFICANT WEATHER AND/OR OBSTRUCTIONS TO VISIBILITY.
      SKY/WX - SKY CONDITION AND SIGNIFICANT WEATHER.
      TMP - AIR TEMPERATURE.    DP   - DEWPOINT TEMPERATURE.
      RH  - RELATIVE HUMIDITY.  PRES - PRESSURE.
      HX  - HEAT INDEX.         WCI  - WIND CHILL INDEX.
$




USA.gov is the U.S. government's official web portal to all federal, state and local government web resources and services.